GW7331 Weather Reports


time (UTC)temp
C
wind
direction
speed
KPH
gust
KPH
rain 1hr
cm
rain 24hr
cm
rain mn
cm
humidity
%
barometer
mb
20260906011602 26 0 0.0 0.0 0.00 0.51 0.51 92 1011.6
20260906010047 26 0 0.0 0.0 0.00 0.51 0.51 91 1011.7
20260906004545 27 0 0.0 0.0 0.00 0.51 0.51 90 1011.7
20260906003043 27 0 0.0 0.0 0.00 0.51 0.51 89 1011.6
20260906001548 28 0 0.0 0.0 0.00 0.51 0.51 86 1011.6
20260906000047 28 0 0.0 3.2 0.00 0.51 0.51 82 1011.7
20260905234543 28 164 0.0 1.6 0.00 0.51 0.51 81 1011.6
20260905233105 28 0 0.0 8.0 0.00 0.51 0.51 81 1011.5
20260905231553 28 0 0.0 1.6 0.00 0.51 0.51 82 1011.5
20260905230048 29 0 0.0 0.0 0.00 0.51 0.51 84 1011.5
20260905224606 30 0 0.0 1.6 0.00 0.51 0.51 79 1011.5
20260905223048 30 231 0.0 3.2 0.00 0.51 0.51 75 1011.8
20260905221545 30 243 1.6 4.8 0.00 0.51 0.51 75 1011.8
20260905220049 31 347 0.0 4.8 0.00 0.51 0.51 73 1011.9
20260905214546 31 180 3.2 8.0 0.00 0.51 0.51 73 1011.9
20260905213049 31 0 0.0 4.8 0.00 0.51 0.51 74 1012.1
20260905211545 31 213 0.0 4.8 0.00 0.51 0.51 75 1012.2
20260905210044 31 0 0.0 4.8 0.00 0.51 0.51 76 1012.2
20260905204547 30 258 0.0 4.8 0.00 0.51 0.51 79 1012.1
20260905203045 29 0 0.0 3.2 0.20 0.51 0.51 80 1012.2
20260905201545 28 0 0.0 1.6 0.25 0.51 0.51 87 1012.3
20260905200051 27 0 0.0 1.6 0.41 0.51 0.51 90 1012.6
20260905194548 26 332 0.0 4.8 0.48 0.51 0.51 91 1012.9
20260905193044 26 282 0.0 8.0 0.28 0.30 0.30 90 1013.4
20260905191549 27 0 0.0 9.7 0.23 0.25 0.25 88 1013.4
20260905190104 28 206 4.8 9.7 0.08 0.10 0.10 83 1013.3
20260905184606 31 207 1.6 6.4 0.00 0.03 0.03 77 1013.3
20260905183045 31 0 0.0 1.6 0.03 0.03 0.03 76 1013.4
20260905181544 31 210 0.0 1.6 0.03 0.03 0.03 74 1013.6
20260905180050 32 203 0.0 4.8 0.03 0.03 0.03 74 1013.6
20260905174554 30 0 0.0 0.0 0.03 0.03 0.03 85 1013.8
20260905173046 31 0 0.0 4.8 0.00 0.00 0.00 74 1013.8
20260905171544 32 328 1.6 3.2 0.00 0.00 0.00 70 1013.9
20260905170045 31 198 0.0 4.8 0.00 0.00 0.00 67 1013.9
20260905164550 31 0 0.0 3.2 0.00 0.00 0.00 72 1014.2
20260905163045 30 238 0.0 4.8 0.00 0.00 0.00 73 1014.2
20260905161544 30 173 0.0 3.2 0.00 0.00 0.00 75 1014.4
20260905160042 30 221 0.0 6.4 0.00 0.00 0.00 75 1014.4
20260905154547 30 293 1.6 3.2 0.00 0.00 0.00 75 1014.3
20260905153045 30 0 0.0 4.8 0.00 0.00 0.00 76 1014.2
20260905151544 30 0 0.0 4.8 0.00 0.00 0.00 77 1014.2
20260905150041 29 0 0.0 1.6 0.00 0.00 0.00 79 1014.3
20260905144546 29 0 0.0 4.8 0.00 0.03 0.00 83 1014.4
20260905143046 28 216 1.6 4.8 0.00 0.03 0.00 83 1014.3
20260905141547 28 0 0.0 4.8 0.00 0.03 0.00 85 1014.2
20260905140047 27 0 0.0 1.6 0.00 0.03 0.00 93 1014.3
20260905134546 26 0 0.0 0.0 0.00 0.03 0.00 97 1014.1
20260905133044 26 0 0.0 0.0 0.00 0.03 0.00 97 1014.1
20260905131557 25 0 0.0 0.0 0.00 0.03 0.00 97 1014.2
20260905130047 25 0 0.0 0.0 0.00 0.03 0.00 98 1014.0
20260905124550 23 0 0.0 0.0 0.00 0.03 0.00 97 1014.0
20260905123055 23 0 0.0 0.0 0.00 0.03 0.00 97 1014.0
20260905121551 23 0 0.0 0.0 0.00 0.03 0.00 97 1013.8
20260905120050 23 0 0.0 0.0 0.00 0.03 0.00 97 1013.8
20260905114546 23 0 0.0 0.0 0.00 0.03 0.00 97 1013.7
20260905113044 23 0 0.0 0.0 0.00 0.03 0.00 97 1013.5
20260905111552 23 0 0.0 0.0 0.00 0.03 0.00 97 1013.4
20260905110045 23 0 0.0 0.0 0.00 0.03 0.00 97 1013.4
20260905104545 23 0 0.0 0.0 0.00 0.03 0.00 97 1013.2
20260905103043 23 0 0.0 0.0 0.00 0.03 0.00 97 1013.3
20260905101559 23 0 0.0 0.0 0.00 0.03 0.00 97 1013.1
20260905100047 23 0 0.0 0.0 0.00 0.03 0.00 97 1013.0
20260905094547 23 0 0.0 0.0 0.00 0.03 0.00 97 1013.2
20260905093043 23 0 0.0 0.0 0.00 0.03 0.00 97 1013.0
20260905091548 23 0 0.0 0.0 0.00 0.03 0.00 97 1012.9
20260905090045 23 0 0.0 0.0 0.00 0.03 0.00 97 1012.9
20260905084601 23 0 0.0 0.0 0.00 0.03 0.00 97 1013.1
20260905083042 23 0 0.0 0.0 0.00 0.03 0.00 97 1012.9
20260905081545 23 0 0.0 0.0 0.00 0.03 0.00 97 1012.8
20260905080045 23 0 0.0 0.0 0.00 0.03 0.00 97 1012.7
20260905074545 23 0 0.0 0.0 0.00 0.03 0.00 97 1012.9
20260905073043 23 0 0.0 0.0 0.00 0.03 0.00 97 1012.8
20260905071547 23 0 0.0 0.0 0.00 0.03 0.00 96 1012.8
20260905070046 23 0 0.0 0.0 0.00 0.03 0.00 96 1012.7
20260905064544 23 0 0.0 0.0 0.00 0.03 0.00 96 1012.7
20260905063051 23 0 0.0 0.0 0.00 0.03 0.00 96 1012.4
20260905061548 23 0 0.0 0.0 0.00 0.03 0.00 96 1012.7
20260905060046 23 0 0.0 0.0 0.00 0.03 0.00 96 1012.9
20260905054546 23 0 0.0 0.0 0.00 0.08 0.00 96 1012.7
20260905053042 23 0 0.0 0.0 0.00 0.08 0.00 96 1012.9
20260905051547 24 0 0.0 0.0 0.00 0.08 0.00 96 1013.0
20260905050047 24 0 0.0 0.0 0.00 0.08 0.00 96 1013.2
20260905044546 24 0 0.0 0.0 0.00 0.38 0.08 96 1013.5
20260905043046 24 0 0.0 0.0 0.00 0.38 0.08 96 1013.5
20260905041547 24 0 0.0 0.0 0.00 0.38 0.08 96 1013.6
20260905040046 24 0 0.0 0.0 0.00 0.38 0.08 96 1013.7
20260905034548 24 0 0.0 0.0 0.00 0.38 0.08 96 1013.8
20260905033039 24 0 0.0 0.0 0.00 0.38 0.08 96 1013.9
20260905031550 24 0 0.0 0.0 0.00 0.38 0.08 95 1014.0
20260905030044 24 0 0.0 0.0 0.00 0.38 0.08 95 1014.1
20260905024608 24 0 0.0 0.0 0.00 0.38 0.08 95 1014.1
20260905023056 25 0 0.0 0.0 0.00 0.38 0.08 95 1014.2
20260905021547 25 0 0.0 0.0 0.00 0.38 0.08 95 1014.0
20260905020050 25 0 0.0 0.0 0.00 0.38 0.08 94 1013.9
20260905014546 25 0 0.0 0.0 0.00 0.38 0.08 94 1013.8
20260905013052 25 0 0.0 0.0 0.00 0.38 0.08 94 1013.6